Content
SEND FEEDBACK

Daily
Averages
Monthly
Summary
United States of America

CAPE CORAL, FLORIDA


Home > North America > United States > Florida
Elevation: 14 feet     Latitude: 26 35N     Longitude: 081 52W

WEATHER
 
SELECT A DAY
Number of Records: 189,098;   Date Range: 1/1/95 - 9/30/14
 
SHARE

PRINT THIS DATA

[ ← Previous Day ]
WEATHER ALMANAC - JANUARY 23, 2013
[ Next Day → ]
[ °C ]   °F
Weather ElementAverageHighLow
Temperature62.4 °F73.9 °F (1:53 pm)54 °F (3:53 am)
Dewpoint40.4 °F46 °F (12:53 pm)35.1 °F (5:53 am)
Humidity45.7 %67 % (11:53 pm)28 % (2:53 pm)
Barometer30.28 in30.34 in (9:53 am)30.25 in (1:53 am)
Wind Speed8.2 mph13.8 mph (8:53 am)
Wind Gust20.7 mph (8:53 am)
Weather ElementAverage
Visibility10 mi
Wind DirectionNNE (38.6 °)

Weather ElementTotal
Precipitation---
Heating Degree Days1.1 (Base 65)
Growing Degree Days14 (Base 50)
Averaged from 22 records on January 23, 2013
WEATHER CONDITIONS BREAKOUT
WIND DIRECTION BREAKOUT
WEATHER BY HOUR - JANUARY 23, 2013
[ °C ]   °F
Local TimeTemperatureDewpointHumidityBarometerVisibilityWind DirectionWind SpeedGust SpeedPrecipitationEventsConditions
1:53 AM57.0 °F42.1 °F57 %30.25 in10.0 miNE (50°)9.2 mphClear
2:53 AM55.0 °F43.0 °F64 %30.25 in10.0 miNE (40°)8.1 mphClear
3:53 AM54.0 °F39.0 °F57 %30.25 in10.0 miNE (40°)6.9 mphClear
4:53 AM55.0 °F37.0 °F51 %30.25 in10.0 miNE (40°)12.7 mphClear
5:53 AM54.0 °F35.1 °F49 %30.27 in10.0 miNNE (30°)10.4 mphClear
7:53 AM54.0 °F36.0 °F51 %30.30 in10.0 miNE (40°)9.2 mphClear
8:53 AM55.9 °F37.0 °F49 %30.32 in10.0 miNE (40°)13.8 mph20.7 mphClear
9:53 AM59.0 °F37.0 °F44 %30.34 in10.0 miNE (50°)10.4 mphClear
10:53 AM64.9 °F41.0 °F42 %30.34 in10.0 miNNE (30°)12.7 mphClear
11:53 AM68.0 °F44.1 °F42 %30.32 in10.0 miENE (60°)8.1 mphClear
12:53 PM71.1 °F46.0 °F41 %30.28 in10.0 miNNE (30°)6.9 mph16.1 mphClear
1:53 PM73.9 °F44.1 °F34 %30.27 in10.0 miNE (40°)12.7 mph17.3 mphClear
2:53 PM73.9 °F39.0 °F28 %30.25 in10.0 miNNE (20°)8.1 mphClear
3:53 PM73.9 °F41.0 °F30 %30.25 in10.0 miNE (50°)8.1 mphClear
4:53 PM73.0 °F37.9 °F28 %30.26 in10.0 miNNE (30°)9.2 mphClear
5:53 PM69.1 °F39.9 °F35 %30.26 in10.0 miNNE (20°)6.9 mphClear
6:53 PM66.0 °F41.0 °F40 %30.27 in10.0 miNNE (20°)6.9 mphClear
7:53 PM63.0 °F43.0 °F48 %30.29 in10.0 miNE (50°)4.6 mphClear
8:53 PM61.0 °F41.0 °F48 %30.31 in10.0 miNE (40°)3.5 mphClear
9:53 PM60.1 °F39.0 °F46 %30.31 in10.0 miENE (60°)6.9 mphClear
10:53 PM57.0 °F41.0 °F55 %30.30 in10.0 miENE (70°)5.8 mphClear
11:53 PM55.0 °F44.1 °F67 %30.29 in10.0 miCalmClear
Hourly data recorded from KFMY, located miles away from Cape Coral, Florida







STORIES FROM OUR PARTNERS